Year,Month,Day,Hour,Minute,Value (Times are PST for temperature in C)
2014,11,15,00,00,4.50
2014,11,15,00,01,4.50
2014,11,15,00,02,4.50
2014,11,15,00,03,4.60
2014,11,15,00,04,4.60
2014,11,15,00,05,4.60
2014,11,15,00,06,4.60
2014,11,15,00,07,4.60
2014,11,15,00,08,4.60
2014,11,15,00,09,4.60
2014,11,15,00,10,4.60
2014,11,15,00,11,4.60
2014,11,15,00,12,4.60
2014,11,15,00,13,4.60
2014,11,15,00,14,4.50
2014,11,15,00,15,4.50
2014,11,15,00,16,4.50
2014,11,15,00,17,4.40
2014,11,15,00,18,4.40
2014,11,15,00,19,4.40
2014,11,15,00,20,4.40
2014,11,15,00,21,4.40
2014,11,15,00,22,4.40
2014,11,15,00,23,4.40
2014,11,15,00,24,4.40
2014,11,15,00,25,4.40
2014,11,15,00,26,4.40
2014,11,15,00,27,4.40
2014,11,15,00,28,4.40
2014,11,15,00,29,4.40
2014,11,15,00,30,4.30
2014,11,15,00,31,4.30
2014,11,15,00,32,4.30
2014,11,15,00,33,4.20
2014,11,15,00,34,4.20
2014,11,15,00,35,4.20
2014,11,15,00,36,4.10
2014,11,15,00,37,4.00
2014,11,15,00,38,4.00
2014,11,15,00,39,4.00
2014,11,15,00,40,4.00
2014,11,15,00,41,4.10
2014,11,15,00,42,4.10
2014,11,15,00,43,4.10
2014,11,15,00,44,4.10
2014,11,15,00,45,4.10
2014,11,15,00,46,4.00
2014,11,15,00,47,4.00
2014,11,15,00,48,4.10
2014,11,15,00,49,4.10
2014,11,15,00,50,4.10
2014,11,15,00,51,4.20
2014,11,15,00,52,4.20
2014,11,15,00,53,4.20
2014,11,15,00,54,4.20
2014,11,15,00,55,4.20
2014,11,15,00,56,4.10
2014,11,15,00,57,4.10
2014,11,15,00,58,4.10
2014,11,15,00,59,4.00
2014,11,15,01,00,4.00
2014,11,15,01,01,4.00
2014,11,15,01,02,3.90
2014,11,15,01,03,3.90
2014,11,15,01,04,3.80
2014,11,15,01,05,3.80
2014,11,15,01,06,3.80
2014,11,15,01,07,3.80
2014,11,15,01,08,3.70
2014,11,15,01,09,3.70
2014,11,15,01,10,3.60
2014,11,15,01,11,3.60
2014,11,15,01,12,3.60
2014,11,15,01,13,3.50
2014,11,15,01,14,3.50
2014,11,15,01,15,3.50
2014,11,15,01,16,3.40
2014,11,15,01,17,3.40
2014,11,15,01,18,3.40
2014,11,15,01,19,3.40
2014,11,15,01,20,3.30
2014,11,15,01,21,3.30
2014,11,15,01,22,3.30
2014,11,15,01,23,3.30
2014,11,15,01,24,3.30
2014,11,15,01,25,3.30
2014,11,15,01,26,3.30
2014,11,15,01,27,3.20
2014,11,15,01,28,3.20
2014,11,15,01,29,3.20
2014,11,15,01,30,3.10
2014,11,15,01,31,3.10
2014,11,15,01,32,3.10
2014,11,15,01,33,3.10
2014,11,15,01,34,2.90
2014,11,15,01,35,2.90
2014,11,15,01,36,2.90
2014,11,15,01,37,2.90
2014,11,15,01,38,2.80
2014,11,15,01,39,2.80
2014,11,15,01,40,2.80
2014,11,15,01,41,2.80
2014,11,15,01,42,2.80
2014,11,15,01,43,2.80
2014,11,15,01,44,2.80
2014,11,15,01,45,2.80
2014,11,15,01,46,2.80
2014,11,15,01,47,2.80
2014,11,15,01,48,2.80
2014,11,15,01,49,2.70
2014,11,15,01,50,2.70
2014,11,15,01,51,2.60
2014,11,15,01,52,2.50
2014,11,15,01,53,2.40
2014,11,15,01,54,2.40
2014,11,15,01,55,2.30
2014,11,15,01,56,2.20
2014,11,15,01,57,2.10
2014,11,15,01,58,2.00
2014,11,15,01,59,1.90
2014,11,15,02,00,1.70
2014,11,15,02,01,1.60
2014,11,15,02,02,1.40
2014,11,15,02,03,1.30
2014,11,15,02,04,1.20
2014,11,15,02,05,1.10
2014,11,15,02,06,1.00
2014,11,15,02,07,1.00
2014,11,15,02,08,0.90
2014,11,15,02,09,0.70
2014,11,15,02,10,0.60
2014,11,15,02,11,0.40
2014,11,15,02,12,0.40
2014,11,15,02,13,0.30
2014,11,15,02,14,0.30
2014,11,15,02,15,0.30
2014,11,15,02,16,0.30
2014,11,15,02,17,0.30
2014,11,15,02,18,0.20
2014,11,15,02,19,0.20
2014,11,15,02,20,0.10
2014,11,15,02,21,0.10
2014,11,15,02,22,0.10
2014,11,15,02,23,0.10
2014,11,15,02,24,0.00
2014,11,15,02,25,-0.10
2014,11,15,02,26,-0.10
2014,11,15,02,27,-0.10
2014,11,15,02,28,-0.20
2014,11,15,02,29,-0.20
2014,11,15,02,30,-0.20
2014,11,15,02,31,-0.20
2014,11,15,02,32,-0.30
2014,11,15,02,33,-0.40
2014,11,15,02,34,-0.40
2014,11,15,02,35,-0.40
2014,11,15,02,36,-0.40
2014,11,15,02,37,-0.40
2014,11,15,02,38,-0.40
2014,11,15,02,39,-0.40
2014,11,15,02,40,-0.40
2014,11,15,02,41,-0.40
2014,11,15,02,42,-0.40
2014,11,15,02,43,-0.40
2014,11,15,02,44,-0.40
2014,11,15,02,45,-0.40
2014,11,15,02,46,-0.60
2014,11,15,02,47,-0.60
2014,11,15,02,48,-0.70
2014,11,15,02,49,-0.80
2014,11,15,02,50,-0.90
2014,11,15,02,51,-0.90
2014,11,15,02,52,-1.00
2014,11,15,02,53,-1.10
2014,11,15,02,54,-1.10
2014,11,15,02,55,-1.10
2014,11,15,02,56,-1.20
2014,11,15,02,57,-1.30
2014,11,15,02,58,-1.30
2014,11,15,02,59,-1.30
2014,11,15,03,00,-1.30
2014,11,15,03,01,-1.30
2014,11,15,03,02,-1.30
2014,11,15,03,03,-1.20
2014,11,15,03,04,-1.20
2014,11,15,03,05,-1.20
2014,11,15,03,06,-1.10
2014,11,15,03,07,-1.10
2014,11,15,03,08,-1.10
2014,11,15,03,09,-1.10
2014,11,15,03,10,-1.10
2014,11,15,03,11,-1.10
2014,11,15,03,12,-1.10
2014,11,15,03,13,-1.10
2014,11,15,03,14,-1.10
2014,11,15,03,15,-1.10
2014,11,15,03,16,-1.00
2014,11,15,03,17,-0.90
2014,11,15,03,18,-0.90
2014,11,15,03,19,-0.90
2014,11,15,03,20,-0.90
2014,11,15,03,21,-0.90
2014,11,15,03,22,-0.90
2014,11,15,03,23,-0.90
2014,11,15,03,24,-0.90
2014,11,15,03,25,-0.90
2014,11,15,03,26,-0.90
2014,11,15,03,27,-0.90
2014,11,15,03,28,-0.90
2014,11,15,03,29,-0.90
2014,11,15,03,30,-0.90
2014,11,15,03,31,-0.90
2014,11,15,03,32,-0.90
2014,11,15,03,33,-0.90
2014,11,15,03,34,-0.90
2014,11,15,03,35,-0.90
2014,11,15,03,36,-1.10
2014,11,15,03,37,-1.10
2014,11,15,03,38,-1.10
2014,11,15,03,39,-1.10
2014,11,15,03,40,-1.20
2014,11,15,03,41,-1.20
2014,11,15,03,42,-1.30
2014,11,15,03,43,-1.40
2014,11,15,03,44,-1.40
2014,11,15,03,45,-1.40
2014,11,15,03,46,-1.40
2014,11,15,03,47,-1.50
2014,11,15,03,48,-1.50
2014,11,15,03,49,-1.50
2014,11,15,03,50,-1.50
2014,11,15,03,51,-1.60
2014,11,15,03,52,-1.50
2014,11,15,03,53,-1.60
2014,11,15,03,54,-1.60
2014,11,15,03,55,-1.50
2014,11,15,03,56,-1.50
2014,11,15,03,57,-1.50
2014,11,15,03,58,-1.50
2014,11,15,03,59,-1.50
2014,11,15,04,00,-1.50
2014,11,15,04,01,-1.50
2014,11,15,04,02,-1.60
2014,11,15,04,03,-1.50
2014,11,15,04,04,-1.50
2014,11,15,04,05,-1.50
2014,11,15,04,06,-1.50
2014,11,15,04,07,-1.50
2014,11,15,04,08,-1.40
2014,11,15,04,09,-1.50
2014,11,15,04,10,-1.50
2014,11,15,04,11,-1.50
2014,11,15,04,12,-1.60
2014,11,15,04,13,-1.60
2014,11,15,04,14,-1.60
2014,11,15,04,15,-1.60
2014,11,15,04,16,-1.60
2014,11,15,04,17,-1.50
2014,11,15,04,18,-1.50
2014,11,15,04,19,-1.50
2014,11,15,04,20,-1.40
2014,11,15,04,21,-1.40
2014,11,15,04,22,-1.40
2014,11,15,04,23,-1.40
2014,11,15,04,24,-1.50
2014,11,15,04,25,-1.50
2014,11,15,04,26,-1.60
2014,11,15,04,27,-1.60
2014,11,15,04,28,-1.50
2014,11,15,04,29,-1.40
2014,11,15,04,30,-1.40
2014,11,15,04,31,-1.40
2014,11,15,04,32,-1.40
2014,11,15,04,33,-1.40
2014,11,15,04,34,-1.40
2014,11,15,04,35,-1.40
2014,11,15,04,36,-1.40
2014,11,15,04,37,-1.40
2014,11,15,04,38,-1.40
2014,11,15,04,39,-1.40
2014,11,15,04,40,-1.40
2014,11,15,04,41,-1.50
2014,11,15,04,42,-1.40
2014,11,15,04,43,-1.40
2014,11,15,04,44,-1.40
2014,11,15,04,45,-1.40
2014,11,15,04,46,-1.40
2014,11,15,04,47,-1.40
2014,11,15,04,48,-1.40
2014,11,15,04,49,-1.40
2014,11,15,04,50,-1.40
2014,11,15,04,51,-1.40
2014,11,15,04,52,-1.40
2014,11,15,04,53,-1.40
2014,11,15,04,54,-1.40
2014,11,15,04,55,-1.40
2014,11,15,04,56,-1.40
2014,11,15,04,57,-1.40
2014,11,15,04,58,-1.40
2014,11,15,04,59,-1.40
2014,11,15,05,00,-1.30
2014,11,15,05,01,-1.30
2014,11,15,05,02,-1.20
2014,11,15,05,03,-1.10
2014,11,15,05,04,-1.10
2014,11,15,05,05,-1.10
2014,11,15,05,06,-1.00
2014,11,15,05,07,-0.90
2014,11,15,05,08,-0.90
2014,11,15,05,09,-1.00
2014,11,15,05,10,-1.10
2014,11,15,05,11,-1.10
2014,11,15,05,12,-1.10
2014,11,15,05,13,-1.20
2014,11,15,05,14,-1.30
2014,11,15,05,15,-1.40
2014,11,15,05,16,-1.50
2014,11,15,05,17,-1.50
2014,11,15,05,18,-1.60
2014,11,15,05,19,-1.60
2014,11,15,05,20,-1.60
2014,11,15,05,21,-1.60
2014,11,15,05,22,-1.60
2014,11,15,05,23,-1.60
2014,11,15,05,24,-1.60
2014,11,15,05,25,-1.60
2014,11,15,05,26,-1.60
2014,11,15,05,27,-1.70
2014,11,15,05,28,-1.70
2014,11,15,05,29,-1.70
2014,11,15,05,30,-1.70
2014,11,15,05,31,-1.70
2014,11,15,05,32,-1.60
2014,11,15,05,33,-1.50
2014,11,15,05,34,-1.50
2014,11,15,05,35,-1.50
2014,11,15,05,36,-1.50
2014,11,15,05,37,-1.50
2014,11,15,05,38,-1.50
2014,11,15,05,39,-1.50
2014,11,15,05,40,-1.50
2014,11,15,05,41,-1.60
2014,11,15,05,42,-1.60
2014,11,15,05,43,-1.70
2014,11,15,05,44,-1.70
2014,11,15,05,45,-1.70
2014,11,15,05,46,-1.80
2014,11,15,05,47,-1.80
2014,11,15,05,48,-1.80
2014,11,15,05,49,-1.80
2014,11,15,05,50,-1.80
2014,11,15,05,51,-1.80
2014,11,15,05,52,-1.80
2014,11,15,05,53,-1.90
2014,11,15,05,54,-1.90
2014,11,15,05,55,-1.90
2014,11,15,05,56,-1.80
2014,11,15,05,57,-1.80
2014,11,15,05,58,-1.80
2014,11,15,05,59,-1.90
2014,11,15,06,00,-1.90
2014,11,15,06,01,-1.90
2014,11,15,06,02,-1.90
2014,11,15,06,03,-1.90
2014,11,15,06,04,-1.90
2014,11,15,06,05,-1.90
2014,11,15,06,06,-2.00
2014,11,15,06,07,-2.00
2014,11,15,06,08,-2.00
2014,11,15,06,09,-2.00
2014,11,15,06,10,-2.00
2014,11,15,06,11,-2.00
2014,11,15,06,12,-1.90
2014,11,15,06,13,-1.90
2014,11,15,06,14,-1.90
2014,11,15,06,15,-2.00
2014,11,15,06,16,-2.00
2014,11,15,06,17,-2.10
2014,11,15,06,18,-2.10
2014,11,15,06,19,-2.20
2014,11,15,06,20,-2.30
2014,11,15,06,21,-2.30
2014,11,15,06,22,-2.30
2014,11,15,06,23,-2.30
2014,11,15,06,24,-2.30
2014,11,15,06,25,-2.30
2014,11,15,06,26,-2.30
2014,11,15,06,27,-2.30
2014,11,15,06,28,-2.40
2014,11,15,06,29,-2.40
2014,11,15,06,30,-2.50
2014,11,15,06,31,-2.50
2014,11,15,06,32,-2.60
2014,11,15,06,33,-2.60
2014,11,15,06,34,-2.60
2014,11,15,06,35,-2.70
2014,11,15,06,36,-2.70
2014,11,15,06,37,-2.70
2014,11,15,06,38,-2.70
2014,11,15,06,39,-2.70
2014,11,15,06,40,-2.70
2014,11,15,06,41,-2.70
2014,11,15,06,42,-2.70
2014,11,15,06,43,-2.70
2014,11,15,06,44,-2.70
2014,11,15,06,45,-2.70
2014,11,15,06,46,-2.70
2014,11,15,06,47,-2.70
2014,11,15,06,48,-2.70
2014,11,15,06,49,-2.70
2014,11,15,06,50,-2.70
2014,11,15,06,51,-2.70
2014,11,15,06,52,-2.60
2014,11,15,06,53,-2.60
2014,11,15,06,54,-2.60
2014,11,15,06,55,-2.60
2014,11,15,06,56,-2.50
2014,11,15,06,57,-2.50
2014,11,15,06,58,-2.50
2014,11,15,06,59,-2.50
2014,11,15,07,00,-2.50
2014,11,15,07,01,-2.50
2014,11,15,07,02,-2.50
2014,11,15,07,03,-2.50
2014,11,15,07,04,-2.60
2014,11,15,07,05,-2.60
2014,11,15,07,06,-2.60
2014,11,15,07,07,-2.60
2014,11,15,07,08,-2.60
2014,11,15,07,09,-2.60
2014,11,15,07,10,-2.50
2014,11,15,07,11,-2.50
2014,11,15,07,12,-2.50
2014,11,15,07,13,-2.50
2014,11,15,07,14,-2.50
2014,11,15,07,15,-2.50
2014,11,15,07,16,-2.50
2014,11,15,07,17,-2.60
2014,11,15,07,18,-2.60
2014,11,15,07,19,-2.60
2014,11,15,07,20,-2.60
2014,11,15,07,21,-2.60
2014,11,15,07,22,-2.60
2014,11,15,07,23,-2.70
2014,11,15,07,24,-2.70
2014,11,15,07,25,-2.70
2014,11,15,07,26,-2.80
2014,11,15,07,27,-2.80
2014,11,15,07,28,-2.80
2014,11,15,07,29,-2.80
2014,11,15,07,30,-2.80
2014,11,15,07,31,-2.80
2014,11,15,07,32,-2.80
2014,11,15,07,33,-2.80
2014,11,15,07,34,-2.90
2014,11,15,07,35,-2.90
2014,11,15,07,36,-3.00
2014,11,15,07,37,-3.00
2014,11,15,07,38,-3.00
2014,11,15,07,39,-3.10
2014,11,15,07,40,-3.10
2014,11,15,07,41,-3.10
2014,11,15,07,42,-3.20
2014,11,15,07,43,-3.20
2014,11,15,07,44,-3.30
2014,11,15,07,45,-3.30
2014,11,15,07,46,-3.30
2014,11,15,07,47,-3.30
2014,11,15,07,48,-3.20
2014,11,15,07,49,-3.10
2014,11,15,07,50,-3.00
2014,11,15,07,51,-3.00
2014,11,15,07,52,-3.00
2014,11,15,07,53,-2.90
2014,11,15,07,54,-2.80
2014,11,15,07,55,-2.60
2014,11,15,07,56,-2.50
2014,11,15,07,57,-2.50
2014,11,15,07,58,-2.40
2014,11,15,07,59,-2.30
2014,11,15,08,00,-2.30
2014,11,15,08,01,-2.30
2014,11,15,08,02,-2.20
2014,11,15,08,03,-2.20
2014,11,15,08,04,-2.20
2014,11,15,08,05,-2.10
2014,11,15,08,06,-2.10
2014,11,15,08,07,-2.00
2014,11,15,08,08,-2.00
2014,11,15,08,09,-1.90
2014,11,15,08,10,-1.80
2014,11,15,08,11,-1.80
2014,11,15,08,12,-1.70
2014,11,15,08,13,-1.60
2014,11,15,08,14,-1.60
2014,11,15,08,15,-1.50
2014,11,15,08,16,-1.50
2014,11,15,08,17,-1.50
2014,11,15,08,18,-1.40
2014,11,15,08,19,-1.40
2014,11,15,08,20,-1.40
2014,11,15,08,21,-1.30
2014,11,15,08,22,-1.30
2014,11,15,08,23,-1.20
2014,11,15,08,24,-1.10
2014,11,15,08,25,-1.00
2014,11,15,08,26,-0.90
2014,11,15,08,27,-0.90
2014,11,15,08,28,-0.80
2014,11,15,08,29,-0.70
2014,11,15,08,30,-0.70
2014,11,15,08,31,-0.70
2014,11,15,08,32,-0.60
2014,11,15,08,33,-0.60
2014,11,15,08,34,-0.60
2014,11,15,08,35,-0.60
2014,11,15,08,36,-0.40
2014,11,15,08,37,-0.40
2014,11,15,08,38,-0.40
2014,11,15,08,39,-0.40
2014,11,15,08,40,-0.40
2014,11,15,08,41,-0.30
2014,11,15,08,42,-0.30
2014,11,15,08,43,-0.20
2014,11,15,08,44,-0.20
2014,11,15,08,45,-0.20
2014,11,15,08,46,-0.20
2014,11,15,08,47,-0.10
2014,11,15,08,48,0.00
2014,11,15,08,49,0.20
2014,11,15,08,50,0.40
2014,11,15,08,51,0.50
2014,11,15,08,52,0.70
2014,11,15,08,53,0.90
2014,11,15,08,54,1.00
2014,11,15,08,55,1.10
2014,11,15,08,56,1.30
2014,11,15,08,57,1.40
2014,11,15,08,58,1.60
2014,11,15,08,59,1.70
2014,11,15,09,00,1.90
2014,11,15,09,01,2.00
2014,11,15,09,02,2.20
2014,11,15,09,03,2.30
2014,11,15,09,04,2.50
2014,11,15,09,05,2.70
2014,11,15,09,06,2.80
2014,11,15,09,07,3.00
2014,11,15,09,08,3.10
2014,11,15,09,09,3.20
2014,11,15,09,10,3.30
2014,11,15,09,11,3.50
2014,11,15,09,12,3.50
2014,11,15,09,13,3.60
2014,11,15,09,14,3.70
2014,11,15,09,15,3.80
2014,11,15,09,16,4.00
2014,11,15,09,17,4.00
2014,11,15,09,18,4.10
2014,11,15,09,19,4.20
2014,11,15,09,20,4.20
2014,11,15,09,21,4.30
2014,11,15,09,22,4.30
2014,11,15,09,23,4.40
2014,11,15,09,24,4.50
2014,11,15,09,25,4.50
2014,11,15,09,26,4.50
2014,11,15,09,27,4.50
2014,11,15,09,28,4.50
2014,11,15,09,29,4.50
2014,11,15,09,30,4.50
2014,11,15,09,31,4.60
2014,11,15,09,32,4.60
2014,11,15,09,33,4.60
2014,11,15,09,34,4.60
2014,11,15,09,35,4.60
2014,11,15,09,36,4.60
2014,11,15,09,37,4.60
2014,11,15,09,38,4.60
2014,11,15,09,39,4.60
2014,11,15,09,40,4.60
2014,11,15,09,41,4.60
2014,11,15,09,42,4.60
2014,11,15,09,43,4.60
2014,11,15,09,44,4.60
2014,11,15,09,45,4.60
2014,11,15,09,46,4.60
2014,11,15,09,47,4.60
2014,11,15,09,48,4.60
2014,11,15,09,49,4.60
2014,11,15,09,50,4.60
2014,11,15,09,51,4.60
2014,11,15,09,52,4.60
2014,11,15,09,53,4.60
2014,11,15,09,54,4.60
2014,11,15,09,55,4.60
2014,11,15,09,56,4.60
2014,11,15,09,57,4.70
2014,11,15,09,58,4.70
2014,11,15,09,59,4.80
2014,11,15,10,00,4.80
2014,11,15,10,01,4.80
2014,11,15,10,02,4.90
2014,11,15,10,03,4.90
2014,11,15,10,04,4.90
2014,11,15,10,05,4.90
2014,11,15,10,06,4.90
2014,11,15,10,07,4.90
2014,11,15,10,08,4.90
2014,11,15,10,09,5.00
2014,11,15,10,10,5.10
2014,11,15,10,11,5.10
2014,11,15,10,12,5.10
2014,11,15,10,13,5.10
2014,11,15,10,14,5.10
2014,11,15,10,15,5.10
2014,11,15,10,16,5.10
2014,11,15,10,17,5.10
2014,11,15,10,18,5.10
2014,11,15,10,19,5.10
2014,11,15,10,20,5.10
2014,11,15,10,21,5.20
2014,11,15,10,22,5.20
2014,11,15,10,23,5.20
2014,11,15,10,24,5.20
2014,11,15,10,25,5.20
2014,11,15,10,26,5.20
2014,11,15,10,27,5.30
2014,11,15,10,28,5.30
2014,11,15,10,29,5.30
2014,11,15,10,30,5.30
2014,11,15,10,31,5.30
2014,11,15,10,32,5.30
2014,11,15,10,33,5.30
2014,11,15,10,34,5.30
2014,11,15,10,35,5.30
2014,11,15,10,36,5.30
2014,11,15,10,37,5.30
2014,11,15,10,38,5.30
2014,11,15,10,39,5.20
2014,11,15,10,40,5.20
2014,11,15,10,41,5.20
2014,11,15,10,42,5.30
2014,11,15,10,43,5.30
2014,11,15,10,44,5.30
2014,11,15,10,45,5.30
2014,11,15,10,46,5.30
2014,11,15,10,47,5.30
2014,11,15,10,48,5.30
2014,11,15,10,49,5.30
2014,11,15,10,50,5.30
2014,11,15,10,51,5.30
2014,11,15,10,52,5.30
2014,11,15,10,53,5.30
2014,11,15,10,54,5.30
2014,11,15,10,55,5.30
2014,11,15,10,56,5.30
2014,11,15,10,57,5.40
2014,11,15,10,58,5.40
2014,11,15,10,59,5.40
2014,11,15,11,00,5.50
2014,11,15,11,01,5.60
2014,11,15,11,02,5.60
2014,11,15,11,03,5.70
2014,11,15,11,04,5.70
2014,11,15,11,05,5.70
2014,11,15,11,06,5.70
2014,11,15,11,07,5.70
2014,11,15,11,08,5.70
2014,11,15,11,09,5.80
2014,11,15,11,10,5.90
2014,11,15,11,11,5.90
2014,11,15,11,12,5.90
2014,11,15,11,13,5.90
2014,11,15,11,14,5.80
2014,11,15,11,15,5.90
2014,11,15,11,16,5.90
2014,11,15,11,17,5.90
2014,11,15,11,18,5.90
2014,11,15,11,19,5.90
2014,11,15,11,20,5.90
2014,11,15,11,21,5.90
2014,11,15,11,22,5.90
2014,11,15,11,23,5.90
2014,11,15,11,24,5.90
2014,11,15,11,25,5.90
2014,11,15,11,26,6.00
2014,11,15,11,27,6.00
2014,11,15,11,28,6.00
2014,11,15,11,29,6.00
2014,11,15,11,30,6.00
2014,11,15,11,31,6.00
2014,11,15,11,32,5.90
2014,11,15,11,33,5.90
2014,11,15,11,34,5.80
2014,11,15,11,35,5.80
2014,11,15,11,36,5.80
2014,11,15,11,37,5.90
2014,11,15,11,38,5.90
2014,11,15,11,39,6.00
2014,11,15,11,40,6.00
2014,11,15,11,41,6.00
2014,11,15,11,42,6.10
2014,11,15,11,43,6.10
2014,11,15,11,44,6.20
2014,11,15,11,45,6.20
2014,11,15,11,46,6.20
2014,11,15,11,47,6.20
2014,11,15,11,48,6.20
2014,11,15,11,49,6.30
2014,11,15,11,50,6.30
2014,11,15,11,51,6.30
2014,11,15,11,52,6.30
2014,11,15,11,53,6.30
2014,11,15,11,54,6.30
2014,11,15,11,55,6.30
2014,11,15,11,56,6.20
2014,11,15,11,57,6.20
2014,11,15,11,58,6.20
2014,11,15,11,59,6.20
2014,11,15,12,00,6.20
2014,11,15,12,01,6.30
2014,11,15,12,02,6.30
2014,11,15,12,03,6.20
2014,11,15,12,04,6.20
2014,11,15,12,05,6.20
2014,11,15,12,06,6.20
2014,11,15,12,07,6.20
2014,11,15,12,08,6.30
2014,11,15,12,09,6.30
2014,11,15,12,10,6.30
2014,11,15,12,11,6.30
2014,11,15,12,12,6.30
2014,11,15,12,13,6.30
2014,11,15,12,14,6.30
2014,11,15,12,15,6.30
2014,11,15,12,16,6.30
2014,11,15,12,17,6.40
2014,11,15,12,18,6.40
2014,11,15,12,19,6.40
2014,11,15,12,20,6.40
2014,11,15,12,21,6.40
2014,11,15,12,22,6.40
2014,11,15,12,23,6.40
2014,11,15,12,24,6.40
2014,11,15,12,25,6.40
2014,11,15,12,26,6.60
2014,11,15,12,27,6.60
2014,11,15,12,28,6.60
2014,11,15,12,29,6.60
2014,11,15,12,30,6.60
2014,11,15,12,31,6.60
2014,11,15,12,32,6.60
2014,11,15,12,33,6.60
2014,11,15,12,34,6.60
2014,11,15,12,35,6.60
2014,11,15,12,36,6.60
2014,11,15,12,37,6.60
2014,11,15,12,38,6.60
2014,11,15,12,39,6.70
2014,11,15,12,40,6.70
2014,11,15,12,41,6.70
2014,11,15,12,42,6.70
2014,11,15,12,43,6.80
2014,11,15,12,44,6.80
2014,11,15,12,45,6.80
2014,11,15,12,46,6.80
2014,11,15,12,47,6.80
2014,11,15,12,48,6.70
2014,11,15,12,49,6.70
2014,11,15,12,50,6.70
2014,11,15,12,51,6.70
2014,11,15,12,52,6.80
2014,11,15,12,53,6.80
2014,11,15,12,54,6.80
2014,11,15,12,55,6.80
2014,11,15,12,56,6.80
2014,11,15,12,57,6.80
2014,11,15,12,58,6.80
2014,11,15,12,59,6.80
2014,11,15,13,00,6.80
2014,11,15,13,01,6.80
2014,11,15,13,02,6.80
2014,11,15,13,03,6.90
2014,11,15,13,04,6.90
2014,11,15,13,05,6.90
2014,11,15,13,06,6.90
2014,11,15,13,07,7.00
2014,11,15,13,08,6.90
2014,11,15,13,09,6.90
2014,11,15,13,10,6.80
2014,11,15,13,11,6.80
2014,11,15,13,12,6.90
2014,11,15,13,13,6.90
2014,11,15,13,14,6.90
2014,11,15,13,15,7.00
2014,11,15,13,16,7.00
2014,11,15,13,17,6.90
2014,11,15,13,18,6.90
2014,11,15,13,19,7.00
2014,11,15,13,20,7.00
2014,11,15,13,21,6.90
2014,11,15,13,22,6.90
2014,11,15,13,23,6.90
2014,11,15,13,24,6.90
2014,11,15,13,25,6.90
2014,11,15,13,26,6.90
2014,11,15,13,27,6.90
2014,11,15,13,28,6.90
2014,11,15,13,29,6.90
2014,11,15,13,30,7.00
2014,11,15,13,31,7.00
2014,11,15,13,32,7.00
2014,11,15,13,33,7.10
2014,11,15,13,34,7.10
2014,11,15,13,35,7.10
2014,11,15,13,36,7.10
2014,11,15,13,37,7.10
2014,11,15,13,38,7.00
2014,11,15,13,39,7.00
2014,11,15,13,40,7.00
2014,11,15,13,41,6.90
2014,11,15,13,42,6.90
2014,11,15,13,43,6.90
2014,11,15,13,44,6.90
2014,11,15,13,45,6.90
2014,11,15,13,46,6.90
2014,11,15,13,47,6.90
2014,11,15,13,48,6.90
2014,11,15,13,49,6.90
2014,11,15,13,50,6.90
2014,11,15,13,51,6.90
2014,11,15,13,52,7.00
2014,11,15,13,53,7.00
2014,11,15,13,54,6.90
2014,11,15,13,55,6.90
2014,11,15,13,56,6.80
2014,11,15,13,57,6.80
2014,11,15,13,58,6.80
2014,11,15,13,59,6.80
2014,11,15,14,00,6.80
2014,11,15,14,01,6.80
2014,11,15,14,02,6.80
2014,11,15,14,03,6.80
2014,11,15,14,04,6.80
2014,11,15,14,05,6.80
2014,11,15,14,06,6.80
2014,11,15,14,07,6.80
2014,11,15,14,08,6.80
2014,11,15,14,09,6.80
2014,11,15,14,10,6.80
2014,11,15,14,11,6.80
2014,11,15,14,12,6.80
2014,11,15,14,13,6.80
2014,11,15,14,14,6.80
2014,11,15,14,15,6.80
2014,11,15,14,16,6.80
2014,11,15,14,17,6.80
2014,11,15,14,18,6.80
2014,11,15,14,19,6.80
2014,11,15,14,20,6.80
2014,11,15,14,21,6.80
2014,11,15,14,22,6.80
2014,11,15,14,23,6.90
2014,11,15,14,24,6.90
2014,11,15,14,25,6.90
2014,11,15,14,26,6.90
2014,11,15,14,27,6.90
2014,11,15,14,28,6.80
2014,11,15,14,29,6.90
2014,11,15,14,30,6.90
2014,11,15,14,31,6.90
2014,11,15,14,32,6.90
2014,11,15,14,33,6.90
2014,11,15,14,34,6.90
2014,11,15,14,35,6.90
2014,11,15,14,36,6.90
2014,11,15,14,37,6.90
2014,11,15,14,38,6.90
2014,11,15,14,39,6.90
2014,11,15,14,40,7.00
2014,11,15,14,41,7.00
2014,11,15,14,42,7.10
2014,11,15,14,43,7.10
2014,11,15,14,44,7.10
2014,11,15,14,45,7.10
2014,11,15,14,46,7.10
2014,11,15,14,47,7.00
2014,11,15,14,48,7.00
2014,11,15,14,49,7.00
2014,11,15,14,50,7.00
2014,11,15,14,51,7.00
2014,11,15,14,52,6.90
2014,11,15,14,53,6.90
2014,11,15,14,54,6.80
2014,11,15,14,55,6.80
2014,11,15,14,56,6.80
2014,11,15,14,57,6.80
2014,11,15,14,58,6.90
2014,11,15,14,59,6.90
2014,11,15,15,00,6.90
2014,11,15,15,01,6.90
2014,11,15,15,02,6.90
2014,11,15,15,03,6.90
2014,11,15,15,04,6.90
2014,11,15,15,05,7.00
2014,11,15,15,06,7.00
2014,11,15,15,07,7.00
2014,11,15,15,08,7.00
2014,11,15,15,09,7.00
2014,11,15,15,10,7.00
2014,11,15,15,11,7.00
2014,11,15,15,12,7.00
2014,11,15,15,13,7.00
2014,11,15,15,14,7.00
2014,11,15,15,15,7.00
2014,11,15,15,16,7.00
2014,11,15,15,17,7.00
2014,11,15,15,18,7.00
2014,11,15,15,19,7.00
2014,11,15,15,20,7.00
2014,11,15,15,21,7.00
2014,11,15,15,22,7.00
2014,11,15,15,23,7.00
2014,11,15,15,24,7.00
2014,11,15,15,25,7.00
2014,11,15,15,26,6.90
2014,11,15,15,27,6.90
2014,11,15,15,28,6.90
2014,11,15,15,29,6.80
2014,11,15,15,30,6.80
2014,11,15,15,31,6.80
2014,11,15,15,32,6.80
2014,11,15,15,33,6.80
2014,11,15,15,34,6.80
2014,11,15,15,35,6.80
2014,11,15,15,36,6.80
2014,11,15,15,37,6.70
2014,11,15,15,38,6.70
2014,11,15,15,39,6.70
2014,11,15,15,40,6.60
2014,11,15,15,41,6.60
2014,11,15,15,42,6.60
2014,11,15,15,43,6.60
2014,11,15,15,44,6.60
2014,11,15,15,45,6.60
2014,11,15,15,46,6.50
2014,11,15,15,47,6.40
2014,11,15,15,48,6.40
2014,11,15,15,49,6.40
2014,11,15,15,50,6.40
2014,11,15,15,51,6.40
2014,11,15,15,52,6.30
2014,11,15,15,53,6.30
2014,11,15,15,54,6.30
2014,11,15,15,55,6.20
2014,11,15,15,56,6.20
2014,11,15,15,57,6.20
2014,11,15,15,58,6.20
2014,11,15,15,59,6.20
2014,11,15,16,00,6.20
2014,11,15,16,01,6.20
2014,11,15,16,02,6.20
2014,11,15,16,03,6.10
2014,11,15,16,04,6.10
2014,11,15,16,05,6.10
2014,11,15,16,06,6.10
2014,11,15,16,07,6.10
2014,11,15,16,08,6.00
2014,11,15,16,09,6.00
2014,11,15,16,10,6.00
2014,11,15,16,11,5.90
2014,11,15,16,12,5.90
2014,11,15,16,13,5.80
2014,11,15,16,14,5.80
2014,11,15,16,15,5.70
2014,11,15,16,16,5.70
2014,11,15,16,17,5.70
2014,11,15,16,18,5.70
2014,11,15,16,19,5.60
2014,11,15,16,20,5.60
2014,11,15,16,21,5.60
2014,11,15,16,22,5.50
2014,11,15,16,23,5.50
2014,11,15,16,24,5.50
2014,11,15,16,25,5.40
2014,11,15,16,26,5.40
2014,11,15,16,27,5.30
2014,11,15,16,28,5.30
2014,11,15,16,29,5.30
2014,11,15,16,30,5.30
2014,11,15,16,31,5.30
2014,11,15,16,32,5.20
2014,11,15,16,33,5.20
2014,11,15,16,34,5.20
2014,11,15,16,35,5.10
2014,11,15,16,36,5.10
2014,11,15,16,37,5.10
2014,11,15,16,38,5.10
2014,11,15,16,39,5.10
2014,11,15,16,40,5.10
2014,11,15,16,41,5.10
2014,11,15,16,42,5.10
2014,11,15,16,43,5.10
2014,11,15,16,44,5.10
2014,11,15,16,45,5.10
2014,11,15,16,46,5.00
2014,11,15,16,47,4.90
2014,11,15,16,48,4.90
2014,11,15,16,49,4.90
2014,11,15,16,50,4.90
2014,11,15,16,51,4.90
2014,11,15,16,52,4.90
2014,11,15,16,53,4.80
2014,11,15,16,54,4.80
2014,11,15,16,55,4.80
2014,11,15,16,56,4.70
2014,11,15,16,57,4.70
2014,11,15,16,58,4.70
2014,11,15,16,59,4.70
2014,11,15,17,00,4.60
2014,11,15,17,01,4.60
2014,11,15,17,02,4.60
2014,11,15,17,03,4.60
2014,11,15,17,04,4.60
2014,11,15,17,05,4.60
2014,11,15,17,06,4.60
2014,11,15,17,07,4.60
2014,11,15,17,08,4.60
2014,11,15,17,09,4.60
2014,11,15,17,10,4.50
2014,11,15,17,11,4.50
2014,11,15,17,12,4.50
2014,11,15,17,13,4.50
2014,11,15,17,14,4.50
2014,11,15,17,15,4.40
2014,11,15,17,16,4.40
2014,11,15,17,17,4.40
2014,11,15,17,18,4.40
2014,11,15,17,19,4.40
2014,11,15,17,20,4.30
2014,11,15,17,21,4.30
2014,11,15,17,22,4.30
2014,11,15,17,23,4.30
2014,11,15,17,24,4.30
2014,11,15,17,25,4.20
2014,11,15,17,26,4.20
2014,11,15,17,27,4.20
2014,11,15,17,28,4.20
2014,11,15,17,29,4.20
2014,11,15,17,30,4.20
2014,11,15,17,31,4.20
2014,11,15,17,32,4.20
2014,11,15,17,33,4.20
2014,11,15,17,34,4.20
2014,11,15,17,35,4.20
2014,11,15,17,36,4.20
2014,11,15,17,37,4.20
2014,11,15,17,38,4.10
2014,11,15,17,39,4.10
2014,11,15,17,40,4.10
2014,11,15,17,41,4.10
2014,11,15,17,42,4.10
2014,11,15,17,43,4.10
2014,11,15,17,44,4.10
2014,11,15,17,45,4.10
2014,11,15,17,46,4.10
2014,11,15,17,47,4.10
2014,11,15,17,48,4.10
2014,11,15,17,49,4.10